This is the latest recevied weather packets stored in our database for station/object K1JO. If no packets are shown the sender has not sent any weather packets the latest 10 day(s).
| Time | Temp. | Humidity | Pressure | Rain* | Wind** | Luminosity | Snow |
|---|---|---|---|---|---|---|---|
| 1777890392 | 1.11° C | 99% | 1003.4 hPa | 0 mm | - | 31 W/m² | - |
| 1777890088 | 0.56° C | 99% | 1003.2 hPa | 0 mm | - | 37 W/m² | - |
| 1777889786 | -0.56° C | 99% | 1003 hPa | 0 mm | - | 52 W/m² | - |
| 1777889483 | -1.11° C | 99% | 1003.1 hPa | 0 mm | - | 38 W/m² | - |
| 1777889181 | -1.11° C | 99% | 1003.1 hPa | 0 mm | - | 25 W/m² | - |
| 1777888879 | -1.11° C | 99% | 1003.2 hPa | 0 mm | - | 22 W/m² | - |
| 1777888575 | -1.67° C | 99% | 1003.2 hPa | 0 mm | - | 19 W/m² | - |
| 1777888270 | -1.67° C | 99% | 1003 hPa | 0 mm | - | 16 W/m² | - |
| 1777887968 | -1.67° C | 99% | 1003.1 hPa | 0 mm | - | 14 W/m² | - |
| 1777887665 | -1.67° C | 99% | 1003 hPa | 0 mm | - | 11 W/m² | - |
| 1777887360 | -2.22° C | 99% | 1003 hPa | 0 mm | - | 9 W/m² | - |
| 1777887057 | -2.22° C | 99% | 1002.8 hPa | 0 mm | - | 6 W/m² | - |
| 1777886753 | -2.22° C | 99% | 1002.9 hPa | 0 mm | - | 4 W/m² | - |
| 1777886449 | -2.22° C | 99% | 1002.8 hPa | 0 mm | - | 3 W/m² | - |
| 1777886148 | -2.22° C | 99% | 1002.5 hPa | 0 mm | - | 2 W/m² | - |
| 1777885845 | -2.22° C | 99% | 1002.7 hPa | 0 mm | - | 1 W/m² | - |
| 1777885543 | -2.22° C | 99% | 1002.7 hPa | 0 mm | - | 0 W/m² | - |
| 1777885241 | -2.22° C | 99% | 1002.7 hPa | 0 mm | - | 0 W/m² | - |
| 1777884939 | -2.22° C | 99% | 1002.7 hPa | 0 mm | - | 0 W/m² | - |
| 1777884634 | -2.22° C | 99% | 1002.6 hPa | 0 mm | - | 0 W/m² | - |
| 1777884332 | -2.22° C | 99% | 1002.5 hPa | 0 mm | - | 0 W/m² | - |
| 1777884027 | -1.67° C | 99% | 1002.6 hPa | 0 mm | - | 0 W/m² | - |
| 1777883726 | -1.67° C | 99% | 1002.8 hPa | 0 mm | - | 0 W/m² | - |
| 1777883421 | -1.67° C | 99% | 1002.7 hPa | 0 mm | - | 0 W/m² | - |
| 1777883118 | -1.67° C | 99% | 1002.5 hPa | 0 mm | - | 0 W/m² | - |
* Rain latest hour (hover to see other rain measurements)
** Current wind speed in m/s (hover to see current wind gust speed)